Starlink 5757

operational
NORAD ID: 55580 Int'l Des: 2023-020 Owner: SPXS Country: US Constellation: starlink
LEOCIRCULAR

Starlink 5757について

説明を読み込み中...

リアルタイム位置

3D地球を読み込み中...

次回通過

高度履歴

Altitude vs Time

uPlot chart will show altitude changes over time

軌道要素

1 55580U 23020M 25354.19975595 .00000681 00000-0 65512-4 0 9997
2 55580 43.0044 50.4316 0001222 273.4982 86.5721 15.02529246157267
Epoch: Dec 20, 2025 • Age: 17 hours

現在のステータス

高度 567.2 km
速度 7.58 km/s
衛星直下点 -32.03°S, 56.88°W
打ち上げ日 Feb 12, 2023
運用期間 2.8 years
タイプ internet

技術仕様

分類 Payload
質量 305.00 kg
乾燥質量 290.00 kg
総質量 305.00 kg
長さ 0.20 m
直径 2.80 m
スパン 9.00 m
形状 Box + pan
製造者 SPXS
バスタイプ Starlink
フェーズステータス In Orbit
所有者/国 SPXS/US

大規模コンステレーション

Loading constellations...